Location: Makanda
(37.6176°N, 89.2090°W)
Time: 10:46:16
(UTC+00:00)

Cosmos 2184 Rocket - Pass Details

Date: 23 September 2019
Orbit: 959 x 1002 km, 82.9° (Epoch: 15 October)

Event Time Altitude Azimuth Distance (km) Brightness Sun altitude
Rises 00:17:13 0° 354° (N) 3,675 7.2 -5.4°
Reaches altitude 10° 00:19:43 10° 355° (N) 2,730 6.5 -5.9°
Maximum altitude 00:26:00 81° 83° (E) 999 4.0 -7.1°
Drops below altitude 10° 00:32:18 10° 171° (S) 2,743 6.2 -8.4°
Sets 00:34:49 0° 172° (S) 3,693 6.9 -8.9°
